Location: Newark
(55.1225°N, 33.2808°E)
Time: 21:09:10
(UTC+00:00)

ISS - Pass Details

Date: 24 September 2019
Orbit: 411 x 421 km, 51.6° (Epoch: 20 October)

Event Time Altitude Azimuth Distance (km) Brightness Sun altitude
Rises 16:10:47 0° 215° (SW) 2,337 0.5 -5.0°
Reaches altitude 10° 16:13:17 10° 196° (SSW) 1,478 -0.9 -5.3°
Maximum altitude 16:15:38 18° 150° (SSE) 1,079 -2.0 -5.7°
Drops below altitude 10° 16:18:01 10° 104° (ESE) 1,483 -1.6 -6.0°
Enters shadow 16:18:30 - 99° (E) 1,632 -1.5 -6.1°
